Weather History for K2C8 - March, 2013

Change the Weather History Date:

Tuesday, March 19, 2013

  Actual Average (KGAF) Record (KGAF)
Temperature  
Mean Temperature 8 °F -  
Max Temperature 15 °F 36 °F 73 °F (2012)
Min Temperature 0 °F 19 °F -9 °F (1965)
Degree Days  
Heating Degree Days 58    
Moisture  
Dew Point -2 °F    
Average Humidity 65    
Maximum Humidity 78    
Minimum Humidity 53    
Precipitation  
Precipitation 0.00 in - - ()
Sea Level Pressure  
Sea Level Pressure 30.17 in    
Wind  
Wind Speed 13 mph (NW)    
Max Wind Speed 21 mph    
Max Gust Speed 25 mph    
Visibility 10 miles    
Events      
Averages and records for this station are not official NWS values.
T = Trace of Precipitation, MM = Missing Value Source: NWS Daily Summary

Daily Weather History Graph

Daily Weather History Graph

Search for Another Location

Airport or City:

Trip Planner

Search our weather history database for the weather conditions in past years. The results will help you decide how hot, cold, wet, or windy it might be!

Date:

Astronomy

Mar. 19, 2013 Rise Set
Actual Time 7:34 AM CDT 7:42 PM CDT
Civil Twilight 7:03 AM CDT 8:13 PM CDT
Nautical Twilight 6:26 AM CDT 8:50 PM CDT
Astronomical Twilight 5:48 AM CDT 9:29 PM CDT
Moon 11:58 AM CDT (3/19) 2:57 AM CDT (3/19)
Length of Visible Light 13h 10m
Length of Day
12h 07m
Waxing Crescent, 50% of the Moon is Illuminated
Mar 19
Waxing Crescent
Mar 19
First Quarter
Mar 27
Full
Apr 2
Last Quarter
Apr 10
New

Hourly Weather History & Observations

Time (CDT) Temp. Windchill Dew Point Humidity Pressure Visibility Wind Dir Wind Speed Gust Speed Precip Events Conditions
12:15 AM 5.0 °F -13.0 °F -2.2 °F 72% 29.97 in 10.0 mi NW 15.0 mph - N/A   Clear
12:35 AM 5.0 °F -12.3 °F -2.2 °F 72% 29.97 in 10.0 mi NW 13.8 mph - N/A   Clear
12:55 AM 5.0 °F -11.6 °F -2.2 °F 72% 29.97 in 10.0 mi NW 12.7 mph - N/A   Clear
1:15 AM 5.0 °F -11.6 °F -2.2 °F 72% 29.97 in 10.0 mi NW 12.7 mph 19.6 mph N/A   Clear
1:55 AM 5.0 °F -11.6 °F -4.0 °F 66% 29.99 in 10.0 mi NW 12.7 mph - N/A   Clear
2:15 AM 5.0 °F -11.6 °F -4.0 °F 66% 30.00 in 10.0 mi NW 12.7 mph - N/A   Clear
2:35 AM 5.0 °F -11.6 °F -4.0 °F 66% 30.00 in 10.0 mi NW 12.7 mph - N/A   Clear
2:55 AM 3.2 °F -13.9 °F -4.0 °F 72% 30.00 in 10.0 mi NW 12.7 mph - N/A   Clear
3:15 AM 3.2 °F -13.1 °F -4.0 °F 72% 30.01 in 10.0 mi NW 11.5 mph - N/A   Clear
3:35 AM 3.2 °F -13.9 °F -4.0 °F 72% 30.01 in 10.0 mi NW 12.7 mph - N/A   Clear
3:55 AM 3.2 °F -13.9 °F -4.0 °F 72% 30.02 in 10.0 mi NW 12.7 mph - N/A   Clear
4:15 AM 1.4 °F -16.9 °F -4.0 °F 78% 30.02 in 10.0 mi NW 13.8 mph 19.6 mph N/A   Clear
4:35 AM 3.2 °F -14.6 °F -4.0 °F 72% 30.02 in 10.0 mi NW 13.8 mph 19.6 mph N/A   Clear
5:15 AM 1.4 °F -16.1 °F -5.8 °F 72% 30.02 in 10.0 mi NNW 12.7 mph - N/A   Clear
5:35 AM 1.4 °F -15.3 °F -7.6 °F 66% 30.03 in 10.0 mi NW 11.5 mph - N/A   Clear
5:55 AM -0.4 °F -17.6 °F -7.6 °F 72% 30.04 in 7.0 mi NW 11.5 mph 17.3 mph N/A   Clear
6:15 AM -0.4 °F -15.7 °F -7.6 °F 72% 30.04 in 10.0 mi NW 9.2 mph - N/A   Clear
6:35 AM 1.4 °F -16.1 °F -5.8 °F 72% 30.06 in 10.0 mi NW 12.7 mph - N/A   Clear
6:55 AM 1.4 °F -15.3 °F -5.8 °F 72% 30.06 in 10.0 mi NW 11.5 mph - N/A   Clear
7:15 AM 1.4 °F -14.5 °F -5.8 °F 72% 30.08 in 10.0 mi NW 10.4 mph - N/A   Clear
7:35 AM 1.4 °F -15.3 °F -5.8 °F 72% 30.09 in 10.0 mi NW 11.5 mph - N/A   Clear
7:55 AM 1.4 °F -15.3 °F -5.8 °F 72% 30.10 in 10.0 mi NW 11.5 mph - N/A   Clear
8:15 AM -0.4 °F -15.7 °F -7.6 °F 72% 30.11 in 10.0 mi NW 9.2 mph - N/A   Clear
8:35 AM 1.4 °F -15.3 °F -5.8 °F 72% 30.12 in 10.0 mi NW 11.5 mph - N/A   Clear
8:55 AM 3.2 °F -12.2 °F -5.8 °F 66% 30.13 in 10.0 mi NW 10.4 mph - N/A   Clear
9:15 AM 5.0 °F -11.6 °F -5.8 °F 61% 30.14 in 7.0 mi NW 12.7 mph - N/A   Clear
9:35 AM 5.0 °F -12.3 °F -4.0 °F 66% 30.15 in 9.0 mi NW 13.8 mph - N/A   Partly Cloudy
9:55 AM 5.0 °F -11.6 °F -4.0 °F 66% 30.16 in 5.0 mi NW 12.7 mph - N/A   Haze
10:15 AM 6.8 °F -9.3 °F -4.0 °F 61% 30.16 in 5.0 mi NW 12.7 mph - N/A   Haze
10:35 AM 6.8 °F -7.8 °F -2.2 °F 67% 30.17 in 10.0 mi NW 10.4 mph - N/A   Clear
10:55 AM 6.8 °F -6.9 °F -2.2 °F 67% 30.18 in 10.0 mi NW 9.2 mph 16.1 mph N/A   Clear
11:15 AM 8.6 °F -7.7 °F -2.2 °F 62% 30.19 in 9.0 mi NNW 13.8 mph - N/A   Clear
11:35 AM 8.6 °F -7.0 °F -2.2 °F 62% 30.19 in 10.0 mi NNW 12.7 mph - N/A   Clear
11:55 AM 8.6 °F -7.7 °F -2.2 °F 62% 30.19 in 10.0 mi NNW 13.8 mph - N/A   Clear
12:15 PM 8.6 °F -7.0 °F -2.2 °F 62% 30.20 in 10.0 mi NNW 12.7 mph - N/A   Clear
12:35 PM 8.6 °F -7.7 °F -2.2 °F 62% 30.21 in 10.0 mi NNW 13.8 mph 19.6 mph N/A   Clear
12:55 PM 10.4 °F -3.3 °F -0.4 °F 62% 30.21 in 10.0 mi NW 10.4 mph - N/A   Clear
1:15 PM 10.4 °F -6.0 °F -0.4 °F 62% 30.21 in 10.0 mi NW 15.0 mph 19.6 mph N/A   Clear
1:35 PM 10.4 °F -6.0 °F -0.4 °F 62% 30.21 in 10.0 mi NNW 15.0 mph - N/A   Clear
1:55 PM 12.2 °F -3.7 °F -0.4 °F 57% 30.21 in 10.0 mi NNW 15.0 mph - N/A   Clear
2:15 PM 14.0 °F -2.5 °F -0.4 °F 53% 30.21 in 10.0 mi NW 17.3 mph 21.9 mph N/A   Clear
2:35 PM 14.0 °F -1.4 °F -0.4 °F 53% 30.21 in 10.0 mi NNW 15.0 mph 19.6 mph N/A   Clear
2:55 PM 14.0 °F -0.8 °F -0.4 °F 53% 30.21 in 10.0 mi NNW 13.8 mph 21.9 mph N/A   Clear
3:15 PM 14.0 °F -2.0 °F -0.4 °F 53% 30.21 in 10.0 mi NW 16.1 mph 20.7 mph N/A   Clear
3:35 PM 14.0 °F -2.5 °F -0.4 °F 53% 30.22 in 10.0 mi NW 17.3 mph 23.0 mph N/A   Clear
3:55 PM 14.0 °F -1.4 °F -0.4 °F 53% 30.22 in 10.0 mi NW 15.0 mph 20.7 mph N/A   Clear
4:15 PM 14.0 °F -2.5 °F -0.4 °F 53% 30.23 in 10.0 mi NW 17.3 mph - N/A   Clear
4:35 PM 15.8 °F 0.3 °F 1.4 °F 53% 30.24 in 10.0 mi NW 16.1 mph - N/A   Clear
4:55 PM 15.8 °F 0.9 °F 1.4 °F 53% 30.24 in 10.0 mi NW 15.0 mph - N/A   Clear
5:15 PM 15.8 °F 0.3 °F 3.2 °F 58% 30.25 in 10.0 mi NNW 16.1 mph - N/A   Clear
5:35 PM 15.8 °F -1.5 °F 1.4 °F 53% 30.25 in 10.0 mi NNW 20.7 mph 25.3 mph N/A   Clear
5:55 PM 14.0 °F -2.0 °F 1.4 °F 57% 30.26 in 10.0 mi NNW 16.1 mph 23.0 mph N/A   Clear
6:15 PM 14.0 °F -1.4 °F 1.4 °F 57% 30.27 in 10.0 mi NNW 15.0 mph - N/A   Clear
6:35 PM 14.0 °F -1.4 °F 1.4 °F 57% 30.27 in 10.0 mi NNW 15.0 mph 19.6 mph N/A   Clear
6:55 PM 14.0 °F -1.4 °F 1.4 °F 57% 30.28 in 10.0 mi NNW 15.0 mph - N/A   Clear
7:15 PM 14.0 °F 0.5 °F 1.4 °F 57% 30.28 in 10.0 mi NNW 11.5 mph - N/A   Clear
7:35 PM 10.4 °F -4.1 °F -0.4 °F 62% 30.28 in 10.0 mi NNW 11.5 mph - N/A   Clear
7:55 PM 10.4 °F -3.3 °F -0.4 °F 62% 30.29 in 10.0 mi NNW 10.4 mph - N/A   Clear
8:15 PM 10.4 °F -4.1 °F -0.4 °F 62% 30.29 in 10.0 mi NW 11.5 mph - N/A   Clear
8:35 PM 8.6 °F -4.7 °F -0.4 °F 67% 30.29 in 10.0 mi NW 9.2 mph - N/A   Clear
8:55 PM 8.6 °F -3.7 °F -0.4 °F 67% 30.30 in 10.0 mi NW 8.1 mph - N/A   Clear
9:15 PM 8.6 °F -5.5 °F -0.4 °F 67% 30.30 in 10.0 mi NW 10.4 mph - N/A   Clear
9:35 PM 6.8 °F -8.6 °F -0.4 °F 72% 30.30 in 10.0 mi NW 11.5 mph - N/A   Clear
9:55 PM 8.6 °F -7.7 °F -0.4 °F 67% 30.30 in 10.0 mi NW 13.8 mph - N/A   Clear
10:15 PM 8.6 °F -7.0 °F -0.4 °F 67% 30.31 in 10.0 mi NW 12.7 mph - N/A   Clear
10:35 PM 8.6 °F -7.7 °F -0.4 °F 67% 30.31 in 10.0 mi NW 13.8 mph - N/A   Clear
10:55 PM 8.6 °F -8.3 °F -0.4 °F 67% 30.31 in 10.0 mi NW 15.0 mph - N/A   Clear
11:15 PM 8.6 °F -8.9 °F -0.4 °F 67% 30.31 in 10.0 mi NW 16.1 mph 20.7 mph N/A   Clear
11:35 PM 8.6 °F -8.3 °F -0.4 °F 67% 30.31 in 10.0 mi NW 15.0 mph 21.9 mph N/A   Clear
11:55 PM 6.8 °F -10.0 °F -0.4 °F 72% 30.31 in 10.0 mi WNW 13.8 mph 18.4 mph N/A   Clear